User: anonymous   Login
Location: Unspecified
(0.0000°N, 0.0000°E)
Time: 02:58:42
(UTC+00:00)
Language:

NOAA 2 - Orbit

View from above orbital plane
View from above orbital plane
View from above satellite
View from above satellite

Ground track
Ground track

The orbit data is extracted from the following two-line orbital elements,

1  6235U 72082A   18171.45738396 -.00000010 +00000-0 +21974-3 0  9996
2  6235 101.7383 136.3596 0004147 002.8222 106.0222 12.53105302089345
Epoch (UTC): 20 June 2018 10:58:37
Eccentricity: 0.0004147
inclination: 101.7383°
perigee height: 1448 km
apogee height: 1455 km
right ascension of ascending node: 136.3596°
argument of perigee: 2.8222°
revolutions per day: 12.53105302
mean anomaly at epoch: 106.0222°
orbit number at epoch: 8934

The dashed part of the orbit path shows where the satellite is in the earth's shadow,  

DLR